"Datum/tijd (MEZT)";"astronomisch [cm]";"waterstand [cm]";"verwachte opzet";"verwachting RWS"
2024-04-14 01:00;-15;10;16;1
2024-04-14 01:10;-18;7;17;-1
2024-04-14 01:20;-21;5;17;-4
2024-04-14 01:30;-23;3;17;-6
2024-04-14 01:40;-25;1;18;-7
2024-04-14 01:50;-26;0;18;-8
2024-04-14 02:00;-27;-1;19;-8
2024-04-14 02:10;-27;-1;20;-7
2024-04-14 02:20;-27;-1;21;-6
2024-04-14 02:30;-26;1;21;-5
2024-04-14 02:40;-25;2;21;-4
2024-04-14 02:50;-24;3;21;-3
2024-04-14 03:00;-24;5;22;-2
2024-04-14 03:10;-23;6;21;-2
2024-04-14 03:20;-22;6;21;-1
2024-04-14 03:30;-22;7;21;-1
2024-04-14 03:40;-22;7;21;-1
2024-04-14 03:50;-22;7;21;-1
2024-04-14 04:00;-23;7;22;-1
2024-04-14 04:10;-24;6;22;-2
2024-04-14 04:20;-24;4;22;-2
2024-04-14 04:30;-25;3;23;-2
2024-04-14 04:40;-26;0;24;-2
2024-04-14 04:50;-26;0;24;-2
2024-04-14 05:00;-26;-2;24;-2
2024-04-14 05:10;-26;-2;24;-2
2024-04-14 05:20;-24;-1;22;-2
2024-04-14 05:30;-23;0;23;0
2024-04-14 05:40;-20;2;23;3
2024-04-14 05:50;-17;6;24;7
2024-04-14 06:00;-12;11;25;13
2024-04-14 06:10;-7;16;27;20
2024-04-14 06:20;0;23;30;30
2024-04-14 06:30;8;32;32;40
2024-04-14 06:40;17;42;34;51
2024-04-14 06:50;27;54;36;63
2024-04-14 07:00;38;66;28;66
2024-04-14 07:10;50;78;28;78
2024-04-14 07:20;62;91;28;90
2024-04-14 07:30;74;104;28;102
2024-04-14 07:40;85;116;28;113
2024-04-14 07:50;96;126;26;122
2024-04-14 08:00;105;135;25;130
2024-04-14 08:10;113;142;23;136
2024-04-14 08:20;119;146;20;139
2024-04-14 08:30;124;149;17;141
2024-04-14 08:40;126;150;14;140
2024-04-14 08:50;127;149;12;139
2024-04-14 09:00;127;146;11;138
2024-04-14 09:10;125;143;10;135
2024-04-14 09:20;122;141;10;132
2024-04-14 09:30;118;136;10;128
2024-04-14 09:40;113;132;12;125
2024-04-14 09:50;109;127;12;121
2024-04-14 10:00;103;122;15;118
2024-04-14 10:10;98;117;16;114
2024-04-14 10:20;93;112;17;110
2024-04-14 10:30;87;108;19;106
2024-04-14 10:40;82;102;19;101
2024-04-14 10:50;76;97;19;95
2024-04-14 11:00;71;92;18;89
2024-04-14 11:10;65;88;17;82
2024-04-14 11:20;60;83;16;76
2024-04-14 11:30;54;78;16;70
2024-04-14 11:40;49;72;14;63
2024-04-14 11:50;43;67;14;57
2024-04-14 12:00;38;62;13;51
2024-04-14 12:10;33;56;12;45
2024-04-14 12:20;28;51;11;39
2024-04-14 12:30;23;45;10;33
2024-04-14 12:40;18;40;10;28
2024-04-14 12:50;13;36;10;23
2024-04-14 13:00;9;31;14;23
2024-04-14 13:10;4;26;11;15
2024-04-14 13:20;0;22;12;12
2024-04-14 13:30;-3;19;12;9
2024-04-14 13:40;-7;16;13;6
2024-04-14 13:50;-10;13;14;4
2024-04-14 14:00;-13;10;15;2
2024-04-14 14:10;-15;8;16;1
2024-04-14 14:20;-17;7;17;0
2024-04-14 14:30;-19;6;19;0
2024-04-14 14:40;-20;5;20;0
2024-04-14 14:50;-22;5;22;0
2024-04-14 15:00;-22;6;23;1
2024-04-14 15:10;-23;6;25;2
2024-04-14 15:20;-23;6;25;2
2024-04-14 15:30;-24;6;27;3
2024-04-14 15:40;-24;6;28;4
2024-04-14 15:50;-24;6;28;4
2024-04-14 16:00;-24;6;29;5
2024-04-14 16:10;-24;7;30;6
2024-04-14 16:20;-24;7;30;6
2024-04-14 16:30;-24;7;30;6
2024-04-14 16:40;-24;8;30;6
2024-04-14 16:50;-25;8;31;6
2024-04-14 17:00;-25;8;31;6
2024-04-14 17:10;-26;7;32;6
2024-04-14 17:20;-26;7;31;5
2024-04-14 17:30;-26;6;31;5
2024-04-14 17:40;-26;6;31;5
2024-04-14 17:50;-25;7;30;5
2024-04-14 18:00;-24;8;29;5
2024-04-14 18:10;-22;9;28;6
2024-04-14 18:20;-19;11;26;7
2024-04-14 18:30;-15;14;24;9
2024-04-14 18:40;-10;17;22;12
2024-04-14 18:50;-4;21;20;16
2024-04-14 19:00;3;25;18;21
2024-04-14 19:10;12;32;16;28
2024-04-14 19:20;20;39;17;37
2024-04-14 19:30;30;47;17;47
2024-04-14 19:40;40;57;19;59
2024-04-14 19:50;50;66;20;70
2024-04-14 20:00;60;76;21;81
2024-04-14 20:10;69;84;21;90
2024-04-14 20:20;77;94;21;98
2024-04-14 20:30;84;101;21;105
2024-04-14 20:40;91;108;20;111
2024-04-14 20:50;95;112;20;115
2024-04-14 21:00;99;116;18;117
2024-04-14 21:10;100;118;18;118
2024-04-14 21:20;101;119;17;118
2024-04-14 21:30;100;118;17;117
2024-04-14 21:40;98;116;16;114
2024-04-14 21:50;96;112;16;112
2024-04-14 22:00;92;108;16;108
2024-04-14 22:10;89;102;14;103
2024-04-14 22:20;84;96;14;98
2024-04-14 22:30;80;90;13;93
2024-04-14 22:40;75;84;12;87
2024-04-14 22:50;70;79;11;81
2024-04-14 23:00;66;73;9;75
2024-04-14 23:10;61;67;8;69
2024-04-14 23:20;56;62;7;63
2024-04-14 23:30;51;57;6;57
2024-04-14 23:40;46;51;5;51
2024-04-14 23:50;41;46;4;45
2024-04-15 00:00;36;41;3;39
2024-04-15 00:10;31;36;2;33
2024-04-15 00:20;26;32;1;27
2024-04-15 00:30;20;26;1;21
2024-04-15 00:40;15;21;0;15
2024-04-15 00:50;10;16;0;10
2024-04-15 01:00;5;12;7;12
2024-04-15 01:10;0;7;8;8
2024-04-15 01:20;-4;3;9;5
2024-04-15 01:30;-8;0;9;1
2024-04-15 01:40;-13;-5;11;-2
2024-04-15 01:50;-16;-8;11;-5
2024-04-15 02:00;-20;-13;12;-8
2024-04-15 02:10;-23;-16;13;-10
2024-04-15 02:20;-25;-19;12;-13
2024-04-15 02:30;-27;-22;12;-15
2024-04-15 02:40;-29;-25;13;-16
2024-04-15 02:50;-30;-27;13;-17
2024-04-15 03:00;-31;-28;13;-18
2024-04-15 03:10;-31;-29;12;-19
2024-04-15 03:20;-31;-29;12;-19
2024-04-15 03:30;-31;-30;12;-19
2024-04-15 03:40;-31;-28;12;-19
2024-04-15 03:50;-30;-28;12;-18
2024-04-15 04:00;-30;-27;12;-18
2024-04-15 04:10;-30;-26;12;-18
2024-04-15 04:20;-29;-25;12;-17
2024-04-15 04:30;-29;-24;12;-17
2024-04-15 04:40;-29;-23;12;-17
2024-04-15 04:50;-29;-21;13;-16
2024-04-15 05:00;-29;-20;13;-16
2024-04-15 05:10;-29;-18;13;-16
2024-04-15 05:20;-29;-17;13;-16
2024-04-15 05:30;-28;-15;12;-16
2024-04-15 05:40;-27;-14;11;-16
2024-04-15 05:50;-26;-14;11;-15
2024-04-15 06:00;-25;-12;10;-15
2024-04-15 06:10;-23;-11;10;-13
2024-04-15 06:20;-20;-9;8;-12
2024-04-15 06:30;-16;-6;7;-9
2024-04-15 06:40;-11;-2;6;-5
2024-04-15 06:50;-6;2;7;1
2024-04-15 07:00;0;7;8;8
2024-04-15 07:10;8;14;10;18
2024-04-15 07:20;16;23;14;30
2024-04-15 07:30;25;34;17;42
2024-04-15 07:40;34;45;21;55
2024-04-15 07:50;44;57;23;67
2024-04-15 08:00;54;70;25;79
2024-04-15 08:10;64;82;26;90
2024-04-15 08:20;74;92;26;100
2024-04-15 08:30;83;102;26;109
2024-04-15 08:40;91;109;25;116
2024-04-15 08:50;99;115;22;121
2024-04-15 09:00;105;121;12;117
2024-04-15 09:10;109;124;9;118
2024-04-15 09:20;112;126;7;119
2024-04-15 09:30;114;125;4;118
2024-04-15 09:40;115;124;2;117
2024-04-15 09:50;115;121;1;116
2024-04-15 10:00;113;116;1;114
2024-04-15 10:10;111;112;0;111
2024-04-15 10:20;108;106;0;108
2024-04-15 10:30;104;100;0;104
2024-04-15 10:40;100;94;1;101
2024-04-15 10:50;96;90;1;97
2024-04-15 11:00;92;85;2;94
2024-04-15 11:10;87;81;3;90
2024-04-15 11:20;82;77;4;86
2024-04-15 11:30;77;73;6;83
2024-04-15 11:40;72;71;6;78
2024-04-15 11:50;68;67;6;74
2024-04-15 12:00;63;65;7;70
2024-04-15 12:10;58;62;8;66
2024-04-15 12:20;54;58;7;61
2024-04-15 12:30;49;55;8;57
2024-04-15 12:40;45;52;8;53
2024-04-15 12:50;41;49;7;48
2024-04-15 13:00;36;46;10;46
2024-04-15 13:10;32;43;11;43
2024-04-15 13:20;28;39;11;39
2024-04-15 13:30;24;35;12;36
2024-04-15 13:40;20;33;13;33
2024-04-15 13:50;16;31;16;32
2024-04-15 14:00;12;29;18;30
2024-04-15 14:10;8;26;21;29
2024-04-15 14:20;5;24;23;28
2024-04-15 14:30;1;21;25;26
2024-04-15 14:40;-2;20;27;25
2024-04-15 14:50;-6;;31;25
2024-04-15 15:00;-9;18;33;24
2024-04-15 15:10;-11;20;36;25
2024-04-15 15:20;-14;21;40;26
2024-04-15 15:30;-16;22;44;28
2024-04-15 15:40;-18;20;48;30
2024-04-15 15:50;-19;21;51;32
2024-04-15 16:00;-21;22;56;35
2024-04-15 16:10;-21;23;58;37
2024-04-15 16:20;-22;21;61;39
2024-04-15 16:30;-22;22;62;40
2024-04-15 16:40;-22;27;62;40
2024-04-15 16:50;-22;31;62;40
2024-04-15 17:00;-22;29;61;39
2024-04-15 17:10;-22;27;59;37
2024-04-15 17:20;-22;26;58;36
2024-04-15 17:30;-22;27;56;34
2024-04-15 17:40;-22;26;55;33
2024-04-15 17:50;-22;24;54;32
2024-04-15 18:00;-21;23;52;31
2024-04-15 18:10;-21;28;52;31
2024-04-15 18:20;-20;33;52;32
2024-04-15 18:30;-19;36;53;34
2024-04-15 18:40;-18;41;55;37
2024-04-15 18:50;-16;46;58;42
2024-04-15 19:00;-13;53;72;59
2024-04-15 19:10;-9;63;77;68
2024-04-15 19:20;-5;71;81;76
2024-04-15 19:30;0;79;84;84
2024-04-15 19:40;6;87;86;92
2024-04-15 19:50;13;96;87;100
2024-04-15 20:00;20;108;88;108
2024-04-15 20:10;27;115;90;117
2024-04-15 20:20;34;121;91;125
2024-04-15 20:30;42;131;91;133
2024-04-15 20:40;49;139;91;140
2024-04-15 20:50;56;144;90;146
2024-04-15 21:00;63;147;87;150
2024-04-15 21:10;68;151;86;154
2024-04-15 21:20;73;155;83;156
2024-04-15 21:30;78;158;80;158
2024-04-15 21:40;81;160;78;159
2024-04-15 21:50;83;160;77;160
2024-04-15 22:00;84;161;76;160
2024-04-15 22:10;85;160;74;159
2024-04-15 22:20;85;157;74;159
2024-04-15 22:30;83;155;74;157
2024-04-15 22:40;82;155;74;156
2024-04-15 22:50;79;152;74;153
2024-04-15 23:00;77;147;73;150
2024-04-15 23:10;74;143;73;147
2024-04-15 23:20;70;139;74;144
2024-04-15 23:30;67;134;73;140
2024-04-15 23:40;63;130;73;136
2024-04-15 23:50;59;128;73;132
2024-04-16 00:00;56;127;72;128
2024-04-16 00:10;52;124;71;123
2024-04-16 00:20;48;120;70;118
2024-04-16 00:30;43;116;70;113
2024-04-16 00:40;39;111;68;107
2024-04-16 00:50;35;105;66;101
2024-04-16 01:00;30;99;69;99
2024-04-16 01:10;26;93;67;93
2024-04-16 01:20;21;89;66;87
2024-04-16 01:30;16;85;66;82
2024-04-16 01:40;12;81;65;77
2024-04-16 01:50;7;76;67;74
2024-04-16 02:00;3;73;67;70
2024-04-16 02:10;-2;70;69;67
2024-04-16 02:20;-6;67;70;64
2024-04-16 02:30;-10;63;71;61
2024-04-16 02:40;-13;60;71;58
2024-04-16 02:50;-17;57;72;55
2024-04-16 03:00;-20;55;72;52
2024-04-16 03:10;-23;55;72;49
2024-04-16 03:20;-25;56;72;47
2024-04-16 03:30;-27;56;72;45
2024-04-16 03:40;-29;55;72;43
2024-04-16 03:50;-31;53;72;41
2024-04-16 04:00;-32;51;72;40
2024-04-16 04:10;-33;50;72;39
2024-04-16 04:20;-33;48;72;39
2024-04-16 04:30;-34;44;72;38
2024-04-16 04:40;-34;42;71;37
2024-04-16 04:50;-34;42;70;36
2024-04-16 05:00;-34;42;70;36
2024-04-16 05:10;-34;41;69;35
2024-04-16 05:20;-34;39;68;34
2024-04-16 05:30;-33;39;67;34
2024-04-16 05:40;-33;39;82;49
2024-04-16 05:50;-32;41;81;49
2024-04-16 06:00;-32;41;82;50
2024-04-16 06:10;-31;41;82;51
2024-04-16 06:20;-30;44;83;53
2024-04-16 06:30;-28;48;83;55
2024-04-16 06:40;-26;50;84;58
2024-04-16 06:50;-24;57;86;62
2024-04-16 07:00;-21;63;88;67
2024-04-16 07:10;-18;70;92;74
2024-04-16 07:20;-13;85;96;83
2024-04-16 07:30;-9;97;101;92
2024-04-16 07:40;-3;104;104;101
2024-04-16 07:50;3;117;108;111
2024-04-16 08:00;10;132;111;121
2024-04-16 08:10;17;141;113;130
2024-04-16 08:20;25;151;114;139
2024-04-16 08:30;32;159;116;148
2024-04-16 08:40;40;164;116;156
2024-04-16 08:50;48;169;115;163
2024-04-16 09:00;56;171;114;170
2024-04-16 09:10;63;176;113;176
2024-04-16 09:20;70;179;111;181
2024-04-16 09:30;77;180;108;185
2024-04-16 09:40;82;181;107;189
2024-04-16 09:50;87;183;105;192
2024-04-16 10:00;91;185;104;195
2024-04-16 10:10;94;186;103;197
2024-04-16 10:20;97;188;102;199
2024-04-16 10:30;98;190;102;200
2024-04-16 10:40;99;191;101;200
2024-04-16 10:50;99;188;101;200
2024-04-16 11:00;99;186;100;199
2024-04-16 11:10;97;185;101;198
2024-04-16 11:20;95;182;102;197
2024-04-16 11:30;93;180;103;196
2024-04-16 11:40;90;175;104;194
2024-04-16 11:50;87;171;105;192
2024-04-16 12:00;84;168;106;190
2024-04-16 12:10;81;167;107;188
2024-04-16 12:20;77;162;108;185
2024-04-16 12:30;74;158;108;182
2024-04-16 12:40;70;154;109;179
2024-04-16 12:50;66;151;109;175
2024-04-16 13:00;63;144;108;171
2024-04-16 13:10;59;136;107;166
2024-04-16 13:20;56;128;103;159
2024-04-16 13:30;52;121;101;153
2024-04-16 13:40;49;115;96;145
2024-04-16 13:50;45;107;93;138
2024-04-16 14:00;42;102;88;130
2024-04-16 14:10;38;97;84;122
2024-04-16 14:20;34;94;80;114
2024-04-16 14:30;31;92;76;107
2024-04-16 14:40;27;87;73;100
2024-04-16 14:50;23;84;70;93
2024-04-16 15:00;19;80;68;87
2024-04-16 15:10;15;76;68;83
2024-04-16 15:20;11;73;68;79
2024-04-16 15:30;8;70;68;76
2024-04-16 15:40;4;67;69;73
2024-04-16 15:50;0;;71;71
2024-04-16 16:00;-3;60;72;69
2024-04-16 16:10;-6;58;73;67
2024-04-16 16:20;-9;55;74;65
2024-04-16 16:30;-11;53;75;64
2024-04-16 16:40;-14;51;77;63
2024-04-16 16:50;-15;48;78;63
2024-04-16 17:00;-17;46;79;62
2024-04-16 17:10;-18;44;80;62
2024-04-16 17:20;-19;42;81;62
2024-04-16 17:30;-19;41;80;61
2024-04-16 17:40;-19;40;80;61
2024-04-16 17:50;-19;39;79;60
2024-04-16 18:00;-19;38;79;60
2024-04-16 18:10;-19;36;78;59
2024-04-16 18:20;-19;36;77;58
2024-04-16 18:30;-19;35;76;57
2024-04-16 18:40;-19;35;75;56
2024-04-16 18:50;-18;35;73;55
2024-04-16 19:00;-17;35;72;55
2024-04-16 19:10;-16;36;70;54
2024-04-16 19:20;-15;36;69;54
2024-04-16 19:30;-13;37;67;54
2024-04-16 19:40;-11;38;66;55
2024-04-16 19:50;-8;39;63;55
2024-04-16 20:00;-5;39;62;57
2024-04-16 20:10;-1;43;59;58
2024-04-16 20:20;3;45;56;59
2024-04-16 20:30;8;47;53;61
2024-04-16 20:40;13;49;51;64
2024-04-16 20:50;18;53;48;66
2024-04-16 21:00;24;58;45;69
2024-04-16 21:10;29;61;43;72
2024-04-16 21:20;34;65;41;75
2024-04-16 21:30;39;69;39;78
2024-04-16 21:40;44;73;38;82
2024-04-16 21:50;49;78;37;86
2024-04-16 22:00;53;81;36;89
2024-04-16 22:10;57;84;36;93
2024-04-16 22:20;60;87;36;96
2024-04-16 22:30;63;90;36;99
2024-04-16 22:40;65;92;36;101
2024-04-16 22:50;67;94;35;102
2024-04-16 23:00;68;96;35;103
2024-04-16 23:10;68;97;35;103
2024-04-16 23:20;69;97;33;102
2024-04-16 23:30;68;98;33;101
2024-04-16 23:40;68;97;31;99
2024-04-16 23:50;67;96;18;85
2024-04-17 00:00;66;94;15;81
2024-04-17 00:10;65;91;13;78
2024-04-17 00:20;63;88;11;74
2024-04-17 00:30;62;85;7;69
2024-04-17 00:40;60;80;5;65
2024-04-17 00:50;57;76;4;61
2024-04-17 01:00;55;72;2;57
2024-04-17 01:10;52;68;1;53
2024-04-17 01:20;48;64;0;48
2024-04-17 01:30;45;60;-1;44
2024-04-17 01:40;41;56;-1;40
2024-04-17 01:50;37;52;-1;36
2024-04-17 02:00;33;47;13;46
2024-04-17 02:10;29;43;12;41
2024-04-17 02:20;24;38;13;37
2024-04-17 02:30;20;34;13;33
2024-04-17 02:40;15;30;14;29
2024-04-17 02:50;11;26;14;25
2024-04-17 03:00;7;22;14;21
2024-04-17 03:10;3;18;13;16
2024-04-17 03:20;-2;15;14;12
2024-04-17 03:30;-5;11;13;8
2024-04-17 03:40;-9;6;13;4
2024-04-17 03:50;-12;3;12;0
2024-04-17 04:00;-16;-1;12;-4
2024-04-17 04:10;-19;-5;12;-7
2024-04-17 04:20;-21;-8;11;-10
2024-04-17 04:30;-24;-11;11;-13
2024-04-17 04:40;-26;-14;10;-16
2024-04-17 04:50;-28;-17;10;-18
2024-04-17 05:00;-29;-17;9;-20
2024-04-17 05:10;-31;-20;9;-22
2024-04-17 05:20;-32;-21;9;-23
2024-04-17 05:30;-33;-23;9;-24
2024-04-17 05:40;-34;-23;9;-25
2024-04-17 05:50;-35;-24;10;-25
2024-04-17 06:00;-35;-23;10;-25
2024-04-17 06:10;-35;-23;11;-24
2024-04-17 06:20;-35;-22;12;-23
2024-04-17 06:30;-35;-20;13;-22
2024-04-17 06:40;-35;-19;14;-21
2024-04-17 06:50;-34;-17;14;-20
2024-04-17 07:00;-33;-16;14;-19
2024-04-17 07:10;-31;-14;12;-19
2024-04-17 07:20;-30;-13;12;-18
2024-04-17 07:30;-28;-11;11;-17
2024-04-17 07:40;-25;-9;9;-16
2024-04-17 07:50;-22;-6;7;-15
2024-04-17 08:00;-19;-5;5;-14
2024-04-17 08:10;-15;-3;2;-13
2024-04-17 08:20;-11;-1;0;-11
2024-04-17 08:30;-6;2;-3;-9
2024-04-17 08:40;-1;5;-5;-6
2024-04-17 08:50;4;8;-6;-2
2024-04-17 09:00;10;12;-1;9
2024-04-17 09:10;15;16;0;15
2024-04-17 09:20;21;21;1;22
2024-04-17 09:30;26;;5;31
2024-04-17 09:40;32;34;7;39
2024-04-17 09:50;38;42;9;47
2024-04-17 10:00;43;49;13;56
2024-04-17 10:10;49;56;14;63
2024-04-17 10:20;54;65;17;71
2024-04-17 10:30;59;74;19;78
2024-04-17 10:40;64;80;21;85
2024-04-17 10:50;68;89;23;91
2024-04-17 11:00;73;96;24;97
2024-04-17 11:10;76;102;25;101
2024-04-17 11:20;80;108;25;105
2024-04-17 11:30;83;114;24;107
2024-04-17 11:40;85;119;24;109
2024-04-17 11:50;87;121;23;110
2024-04-17 12:00;88;122;22;110
2024-04-17 12:10;89;122;21;110
2024-04-17 12:20;89;122;20;109
2024-04-17 12:30;88;121;19;107
2024-04-17 12:40;88;117;16;104
2024-04-17 12:50;86;114;15;101
2024-04-17 13:00;85;113;28;113
2024-04-17 13:10;83;109;27;110
2024-04-17 13:20;81;107;26;107
2024-04-17 13:30;79;103;25;104
2024-04-17 13:40;76;99;25;101
2024-04-17 13:50;73;95;24;97
2024-04-17 14:00;70;93;23;93
2024-04-17 14:10;67;88;22;89
2024-04-17 14:20;64;84;20;84
2024-04-17 14:30;61;81;17;78
2024-04-17 14:40;58;77;15;73
2024-04-17 14:50;54;73;14;68
2024-04-17 15:00;51;69;11;62
2024-04-17 15:10;47;66;11;58
2024-04-17 15:20;43;62;10;53
2024-04-17 15:30;40;57;9;49
2024-04-17 15:40;36;55;9;45
2024-04-17 15:50;32;50;9;41
2024-04-17 16:00;28;47;9;37
2024-04-17 16:10;23;43;11;34
2024-04-17 16:20;19;41;12;31
2024-04-17 16:30;15;37;13;28
2024-04-17 16:40;11;34;15;26
2024-04-17 16:50;7;30;17;24
2024-04-17 17:00;4;28;18;22
2024-04-17 17:10;0;25;20;20
2024-04-17 17:20;-3;24;22;19
2024-04-17 17:30;-6;21;23;17
2024-04-17 17:40;-8;19;25;17
2024-04-17 17:50;-11;16;27;16
2024-04-17 18:00;-12;15;27;15
2024-04-17 18:10;-14;13;29;15
2024-04-17 18:20;-15;11;30;15
2024-04-17 18:30;-16;9;30;14
2024-04-17 18:40;-16;7;30;14
2024-04-17 18:50;-17;7;31;14
2024-04-17 19:00;-17;6;30;13
2024-04-17 19:10;-17;6;30;13
2024-04-17 19:20;-17;5;30;13
2024-04-17 19:30;-17;5;29;12
2024-04-17 19:40;-16;5;28;12
2024-04-17 19:50;-16;4;28;12
2024-04-17 20:00;-15;4;26;11
2024-04-17 20:10;-14;4;25;11
2024-04-17 20:20;-13;6;24;11
2024-04-17 20:30;-11;6;22;11
2024-04-17 20:40;-9;7;21;12
2024-04-17 20:50;-6;8;18;12
2024-04-17 21:00;-4;10;12;8
2024-04-17 21:10;-1;12;10;9
2024-04-17 21:20;2;14;9;11
2024-04-17 21:30;5;16;8;13
2024-04-17 21:40;9;18;7;16
2024-04-17 21:50;12;20;8;20
2024-04-17 22:00;15;22;9;24
2024-04-17 22:10;19;26;10;29
2024-04-17 22:20;23;28;11;34
2024-04-17 22:30;26;33;14;40
2024-04-17 22:40;30;37;16;46
2024-04-17 22:50;33;43;18;51
2024-04-17 23:00;37;47;20;57
2024-04-17 23:10;40;52;22;62
2024-04-17 23:20;43;56;24;67
2024-04-17 23:30;46;62;26;72
2024-04-17 23:40;49;68;27;76
2024-04-17 23:50;52;74;28;80
2024-04-18 00:00;54;78;29;83
2024-04-18 00:10;57;82;29;86
2024-04-18 00:20;59;86;28;87
2024-04-18 00:30;61;89;27;88
2024-04-18 00:40;62;91;27;89
2024-04-18 00:50;64;90;25;89
2024-04-18 01:00;65;91;27;92
2024-04-18 01:10;66;91;24;90
2024-04-18 01:20;67;89;21;88
2024-04-18 01:30;66;86;19;85
2024-04-18 01:40;66;83;15;81
2024-04-18 01:50;65;79;12;77
2024-04-18 02:00;63;74;10;73
2024-04-18 02:10;60;70;8;68
2024-04-18 02:20;57;66;6;63
2024-04-18 02:30;54;62;5;59
2024-04-18 02:40;50;58;4;54
2024-04-18 02:50;46;54;4;50
2024-04-18 03:00;41;51;5;46
2024-04-18 03:10;37;48;5;42
2024-04-18 03:20;32;45;6;38
2024-04-18 03:30;28;41;6;34
2024-04-18 03:40;23;38;7;30
2024-04-18 03:50;18;35;8;26
2024-04-18 04:00;14;31;8;22
2024-04-18 04:10;10;28;9;19
2024-04-18 04:20;5;24;11;16
2024-04-18 04:30;1;20;12;13
2024-04-18 04:40;-2;18;12;10
2024-04-18 04:50;-6;15;13;7
2024-04-18 05:00;-9;11;13;4
2024-04-18 05:10;-12;7;13;1
2024-04-18 05:20;-15;4;13;-2
2024-04-18 05:30;-18;1;13;-5
2024-04-18 05:40;-21;-2;13;-8
2024-04-18 05:50;-23;-4;12;-11
2024-04-18 06:00;-26;-7;13;-13
2024-04-18 06:10;-28;-9;12;-16
2024-04-18 06:20;-30;-12;12;-18
2024-04-18 06:30;-32;-14;12;-20
2024-04-18 06:40;-34;-15;13;-21
2024-04-18 06:50;-35;-17;12;-23
2024-04-18 07:00;-36;-18;12;-24
2024-04-18 07:10;-36;-19;12;-24
2024-04-18 07:20;-36;-18;11;-25
2024-04-18 07:30;-36;-19;11;-25
2024-04-18 07:40;-36;-20;11;-25
2024-04-18 07:50;-35;-20;11;-24
2024-04-18 08:00;-34;-19;11;-23
2024-04-18 08:10;-32;-19;9;-23
2024-04-18 08:20;-30;-19;8;-22
2024-04-18 08:30;-28;-17;7;-21
2024-04-18 08:40;-25;-18;5;-20
2024-04-18 08:50;-23;-17;4;-19
2024-04-18 09:00;-20;-16;3;-17
2024-04-18 09:10;-17;-15;2;-15
2024-04-18 09:20;-14;-14;1;-13
2024-04-18 09:30;-10;-12;0;-10
2024-04-18 09:40;-7;-11;1;-6
2024-04-18 09:50;-4;-8;2;-2
2024-04-18 10:00;0;-4;-11;-11
2024-04-18 10:10;4;-2;-12;-8
2024-04-18 10:20;7;3;-11;-4
2024-04-18 10:30;11;7;-11;0
2024-04-18 10:40;15;11;-10;5
2024-04-18 10:50;20;18;-8;12
2024-04-18 11:00;25;25;-5;20
2024-04-18 11:10;29;31;-1;28
2024-04-18 11:20;35;39;2;37
2024-04-18 11:30;40;47;5;45
2024-04-18 11:40;46;;8;54
2024-04-18 11:50;52;63;10;62
2024-04-18 12:00;57;71;13;70
2024-04-18 12:10;63;79;15;78
2024-04-18 12:20;68;86;16;84
2024-04-18 12:30;74;92;16;90
2024-04-18 12:40;78;99;17;95
2024-04-18 12:50;82;104;17;99
2024-04-18 13:00;86;107;15;101
2024-04-18 13:10;89;109;13;102
2024-04-18 13:20;91;111;11;102
2024-04-18 13:30;93;111;9;102
2024-04-18 13:40;94;110;7;101
2024-04-18 13:50;94;110;5;99
2024-04-18 14:00;94;107;3;97
2024-04-18 14:10;93;104;1;94
2024-04-18 14:20;92;104;0;92
2024-04-18 14:30;90;99;-1;89
2024-04-18 14:40;87;95;-1;86
2024-04-18 14:50;84;92;-1;83
2024-04-18 15:00;81;88;-1;80
2024-04-18 15:10;78;85;-1;77
2024-04-18 15:20;75;82;-1;74
2024-04-18 15:30;71;79;0;71
2024-04-18 15:40;67;75;0;67
2024-04-18 15:50;64;73;-1;63
2024-04-18 16:00;60;;-1;59
2024-04-18 16:10;56;66;-1;55
2024-04-18 16:20;52;;-1;51
2024-04-18 16:30;47;59;-1;46
2024-04-18 16:40;43;54;-1;42
2024-04-18 16:50;39;51;-2;37
2024-04-18 17:00;34;46;-1;33
2024-04-18 17:10;30;43;-2;28
2024-04-18 17:20;26;38;-2;24
2024-04-18 17:30;21;34;-1;20
2024-04-18 17:40;17;30;-1;16
2024-04-18 17:50;13;26;0;13
2024-04-18 18:00;9;21;1;10
2024-04-18 18:10;5;18;2;7
2024-04-18 18:20;1;14;3;4
2024-04-18 18:30;-2;10;3;1
2024-04-18 18:40;-5;7;4;-1
2024-04-18 18:50;-8;4;5;-3
2024-04-18 19:00;-10;0;5;-5
2024-04-18 19:10;-12;-3;5;-7
2024-04-18 19:20;-13;-6;5;-8
2024-04-18 19:30;-14;-7;5;-9
2024-04-18 19:40;-15;-9;5;-10
2024-04-18 19:50;-16;-11;6;-10
2024-04-18 20:00;-16;-13;5;-11
2024-04-18 20:10;-16;-13;5;-11
2024-04-18 20:20;-16;-14;5;-11
2024-04-18 20:30;-16;-15;5;-11
2024-04-18 20:40;-16;-15;4;-12
2024-04-18 20:50;-16;-16;4;-12
2024-04-18 21:00;-15;-15;3;-12
2024-04-18 21:10;-15;-16;3;-12
2024-04-18 21:20;-14;-16;2;-12
2024-04-18 21:30;-13;-15;1;-12
2024-04-18 21:40;-12;-15;0;-12
2024-04-18 21:50;-11;-15;-1;-12
2024-04-18 22:00;-10;-14;-2;-12
2024-04-18 22:10;-8;-13;-4;-12
2024-04-18 22:20;-7;-13;-4;-11
2024-04-18 22:30;-5;-11;-6;-11
2024-04-18 22:40;-3;-10;-7;-10
2024-04-18 22:50;0;-8;-9;-9
2024-04-18 23:00;2;-7;-9;-7
2024-04-18 23:10;5;-4;-10;-5
2024-04-18 23:20;8;-2;-11;-3
2024-04-18 23:30;11;2;-11;0
2024-04-18 23:40;15;6;-10;5
2024-04-18 23:50;19;10;-9;10
2024-04-19 00:00;23;16;-7;16
2024-04-19 00:10;27;23;-3;24
2024-04-19 00:20;31;31;2;33
2024-04-19 00:30;36;40;5;41
2024-04-19 00:40;40;49;10;50
2024-04-19 00:50;45;58;13;58
2024-04-19 01:00;50;66;16;66
2024-04-19 01:10;55;75;20;75
2024-04-19 01:20;60;84;23;83
2024-04-19 01:30;64;90;25;89
2024-04-19 01:40;68;96;27;95
2024-04-19 01:50;72;101;27;99
2024-04-19 02:00;75;105;26;101
2024-04-19 02:10;77;106;25;102
2024-04-19 02:20;78;106;24;102
2024-04-19 02:30;79;104;22;101
2024-04-19 02:40;78;101;21;99
2024-04-19 02:50;77;97;20;97
2024-04-19 03:00;75;92;19;94
2024-04-19 03:10;72;86;19;91
2024-04-19 03:20;68;81;19;87
2024-04-19 03:30;64;78;20;84
2024-04-19 03:40;60;74;19;79
2024-04-19 03:50;55;70;20;75
2024-04-19 04:00;50;66;21;71
2024-04-19 04:10;45;62;21;66
2024-04-19 04:20;40;59;22;62
2024-04-19 04:30;35;57;22;57
2024-04-19 04:40;30;55;23;53
2024-04-19 04:50;25;53;24;49
2024-04-19 05:00;20;50;25;45
2024-04-19 05:10;15;48;26;41
2024-04-19 05:20;11;45;26;37
2024-04-19 05:30;7;43;26;33
2024-04-19 05:40;3;39;26;29
2024-04-19 05:50;-1;37;27;26
2024-04-19 06:00;-4;34;26;22
2024-04-19 06:10;-8;32;27;19
2024-04-19 06:20;-11;30;28;17
2024-04-19 06:30;-15;28;29;14
2024-04-19 06:40;-18;25;30;12
2024-04-19 06:50;-21;24;31;10
2024-04-19 07:00;-24;22;33;9
2024-04-19 07:10;-27;20;34;7
2024-04-19 07:20;-30;19;36;6
2024-04-19 07:30;-32;18;38;6
2024-04-19 07:40;-34;17;39;5
2024-04-19 07:50;-35;17;40;5
2024-04-19 08:00;-36;16;55;19
2024-04-19 08:10;-37;16;57;20
2024-04-19 08:20;-37;14;57;20
2024-04-19 08:30;-37;15;57;20
2024-04-19 08:40;-36;16;57;21
2024-04-19 08:50;-35;15;56;21
2024-04-19 09:00;-34;15;56;22
2024-04-19 09:10;-32;15;55;23
2024-04-19 09:20;-31;15;55;24
2024-04-19 09:30;-29;15;54;25
2024-04-19 09:40;-28;15;54;26
2024-04-19 09:50;-26;16;53;27
2024-04-19 10:00;-24;16;51;27
2024-04-19 10:10;-22;16;50;28
2024-04-19 10:20;-20;16;49;29
2024-04-19 10:30;-19;18;49;30
2024-04-19 10:40;-17;19;49;32
2024-04-19 10:50;-15;22;49;34